TimeCDT,TemperatureF,Dew PointF,Humidity,Sea Level PressureIn,VisibilityMPH,Wind Direction,Wind SpeedMPH,Gust SpeedMPH,PrecipitationIn,Events,Conditions,WindDirDegrees,DateUTC
12:15 AM,48.2,45.7,91,30.15,10.0,Calm,Calm,-,N/A,,Scattered Clouds,0,2012-10-05 05:15:00
12:35 AM,47.1,45.3,93,30.16,10.0,Calm,Calm,-,N/A,,Clear,0,2012-10-05 05:35:00
12:55 AM,46.9,45.5,95,30.16,10.0,Calm,Calm,-,N/A,,Clear,0,2012-10-05 05:55:00
1:15 AM,48.6,45.5,89,30.21,10.0,WSW,6.9,-,N/A,,Clear,240,2012-10-05 06:15:00
1:35 AM,49.3,44.6,84,30.21,10.0,WSW,4.6,-,N/A,,Scattered Clouds,240,2012-10-05 06:35:00
1:55 AM,49.1,44.8,85,30.20,10.0,WNW,3.5,-,N/A,Rain,Light Rain,290,2012-10-05 06:55:00
2:15 AM,49.3,45.0,85,30.20,10.0,West,4.6,-,N/A,,Light Drizzle,280,2012-10-05 07:15:00
2:35 AM,49.5,44.4,83,30.20,10.0,West,5.8,-,N/A,Rain,Light Rain,260,2012-10-05 07:35:00
2:55 AM,49.1,44.1,83,30.17,10.0,WNW,3.5,-,0.01,Rain,Light Rain,300,2012-10-05 07:55:00
3:15 AM,49.1,43.5,81,30.18,10.0,Calm,Calm,-,N/A,,Scattered Clouds,0,2012-10-05 08:15:00
3:35 AM,48.7,44.2,84,30.21,10.0,WSW,4.6,-,N/A,,Clear,240,2012-10-05 08:35:00
3:55 AM,48.7,43.7,83,30.20,10.0,West,3.5,-,N/A,,Scattered Clouds,260,2012-10-05 08:55:00
4:15 AM,48.7,43.2,81,30.18,10.0,WNW,4.6,-,N/A,,Overcast,290,2012-10-05 09:15:00
4:35 AM,49.1,41.9,76,30.20,10.0,West,4.6,-,N/A,,Overcast,260,2012-10-05 09:35:00
4:55 AM,48.4,41.5,77,30.21,10.0,West,6.9,-,N/A,,Mostly Cloudy,280,2012-10-05 09:55:00
5:15 AM,48.2,40.6,75,30.20,10.0,WNW,4.6,-,N/A,,Mostly Cloudy,290,2012-10-05 10:15:00
5:35 AM,47.8,40.3,75,30.18,10.0,WNW,4.6,-,N/A,,Scattered Clouds,300,2012-10-05 10:35:00
5:55 AM,47.3,40.1,76,30.18,10.0,NW,4.6,-,N/A,,Clear,310,2012-10-05 10:55:00
6:15 AM,46.4,39.2,76,30.19,10.0,NW,5.8,-,N/A,,Clear,310,2012-10-05 11:15:00
6:35 AM,46.2,38.7,75,30.19,10.0,WNW,4.6,-,N/A,,Clear,300,2012-10-05 11:35:00
6:55 AM,46.4,40.3,79,30.19,10.0,West,3.5,-,N/A,,Clear,280,2012-10-05 11:55:00
7:15 AM,46.4,39.7,78,30.20,10.0,West,4.6,-,N/A,,Clear,270,2012-10-05 12:15:00
7:35 AM,46.0,40.1,80,30.20,10.0,Calm,Calm,-,N/A,,Mostly Cloudy,0,2012-10-05 12:35:00
7:55 AM,46.6,39.6,77,30.20,10.0,WNW,3.5,-,N/A,,Scattered Clouds,290,2012-10-05 12:55:00
8:15 AM,46.6,38.3,73,30.20,10.0,West,3.5,-,N/A,,Clear,280,2012-10-05 13:15:00
8:35 AM,46.6,38.7,74,30.21,10.0,West,3.5,-,N/A,,Scattered Clouds,280,2012-10-05 13:35:00
8:55 AM,46.9,37.9,71,30.20,10.0,West,3.5,-,N/A,,Scattered Clouds,280,2012-10-05 13:55:00
9:15 AM,47.7,38.1,70,30.20,10.0,WNW,3.5,-,N/A,,Scattered Clouds,290,2012-10-05 14:15:00
9:35 AM,47.3,38.7,72,30.20,10.0,WNW,4.6,-,N/A,,Scattered Clouds,290,2012-10-05 14:35:00
9:55 AM,47.8,38.5,70,30.20,10.0,WNW,4.6,-,N/A,,Scattered Clouds,290,2012-10-05 14:55:00
10:15 AM,48.0,37.8,68,30.21,10.0,WSW,6.9,-,N/A,,Mostly Cloudy,250,2012-10-05 15:15:00
10:35 AM,48.2,37.6,67,30.22,10.0,West,5.8,-,N/A,,Mostly Cloudy,270,2012-10-05 15:35:00
10:55 AM,48.0,38.8,71,30.21,10.0,WSW,4.6,-,N/A,Rain,Light Rain,250,2012-10-05 15:55:00
11:15 AM,48.2,39.2,71,30.19,10.0,West,4.6,-,N/A,,Mostly Cloudy,260,2012-10-05 16:15:00
11:35 AM,48.2,39.4,72,30.19,10.0,West,6.9,-,N/A,,Overcast,280,2012-10-05 16:35:00
11:55 AM,48.7,38.5,68,30.19,10.0,West,6.9,-,N/A,,Overcast,270,2012-10-05 16:55:00
12:15 PM,49.3,38.7,67,30.18,10.0,West,6.9,-,N/A,,Scattered Clouds,280,2012-10-05 17:15:00
12:35 PM,48.6,38.7,69,30.17,10.0,West,6.9,-,N/A,,Mostly Cloudy,280,2012-10-05 17:35:00
12:55 PM,48.9,37.9,66,30.16,10.0,West,6.9,-,N/A,,Scattered Clouds,280,2012-10-05 17:55:00
1:35 PM,48.7,36.9,64,30.14,10.0,West,3.5,-,N/A,,Scattered Clouds,280,2012-10-05 18:35:00
1:55 PM,49.1,36.7,62,30.16,10.0,West,6.9,-,N/A,,Mostly Cloudy,260,2012-10-05 18:55:00
2:15 PM,49.1,37.0,63,30.16,10.0,West,5.8,-,N/A,,Mostly Cloudy,260,2012-10-05 19:15:00
2:35 PM,49.1,37.2,64,30.16,10.0,West,6.9,-,N/A,,Scattered Clouds,270,2012-10-05 19:35:00
2:55 PM,49.5,36.9,62,30.15,10.0,West,6.9,-,N/A,,Scattered Clouds,270,2012-10-05 19:55:00
3:15 PM,49.6,37.8,64,30.15,10.0,West,8.1,-,N/A,,Scattered Clouds,270,2012-10-05 20:15:00
3:35 PM,49.6,37.9,64,30.14,10.0,West,5.8,-,N/A,,Mostly Cloudy,260,2012-10-05 20:35:00
3:55 PM,49.6,39.6,68,30.14,10.0,West,3.5,-,N/A,Rain,Light Rain,270,2012-10-05 20:55:00
4:15 PM,50.2,36.5,59,30.14,10.0,West,9.2,18.4,N/A,,Mostly Cloudy,280,2012-10-05 21:15:00
4:35 PM,46.6,37.9,72,30.16,10.0,WNW,12.7,24.2,N/A,,Overcast,290,2012-10-05 21:35:00
4:55 PM,46.4,38.3,73,30.15,10.0,West,5.8,-,N/A,,Light Drizzle,260,2012-10-05 21:55:00
5:15 PM,46.4,38.1,73,30.16,10.0,West,4.6,-,N/A,,Overcast,260,2012-10-05 22:15:00
5:35 PM,46.4,38.5,74,30.15,10.0,WSW,4.6,-,N/A,,Mostly Cloudy,250,2012-10-05 22:35:00
5:55 PM,46.6,37.9,72,30.14,10.0,SW,4.6,-,N/A,,Mostly Cloudy,230,2012-10-05 22:55:00
6:15 PM,46.4,38.1,73,30.14,10.0,SW,4.6,-,N/A,,Mostly Cloudy,220,2012-10-05 23:15:00
6:35 PM,46.8,37.4,70,30.12,10.0,SW,6.9,-,N/A,,Overcast,220,2012-10-05 23:35:00
6:55 PM,47.3,36.9,67,30.13,10.0,West,5.8,-,N/A,,Overcast,260,2012-10-05 23:55:00
7:15 PM,47.3,35.1,62,30.13,10.0,WSW,8.1,-,N/A,,Overcast,250,2012-10-06 00:15:00
7:35 PM,46.9,35.1,63,30.13,10.0,WSW,6.9,-,N/A,,Overcast,250,2012-10-06 00:35:00
7:55 PM,46.8,35.6,65,30.13,10.0,WSW,5.8,-,N/A,,Overcast,250,2012-10-06 00:55:00
8:15 PM,46.4,35.8,67,30.14,10.0,West,5.8,-,N/A,,Overcast,260,2012-10-06 01:15:00
8:35 PM,45.9,36.0,68,30.14,10.0,WSW,6.9,-,N/A,,Mostly Cloudy,250,2012-10-06 01:35:00
8:55 PM,45.9,36.7,70,30.15,10.0,WSW,5.8,-,N/A,,Overcast,240,2012-10-06 01:55:00
9:15 PM,44.8,36.7,73,30.15,10.0,WSW,5.8,-,N/A,,Scattered Clouds,240,2012-10-06 02:15:00
9:35 PM,44.1,36.1,74,30.14,10.0,WSW,5.8,-,N/A,,Clear,240,2012-10-06 02:35:00
9:55 PM,43.3,35.4,74,30.14,10.0,SW,4.6,-,N/A,,Clear,230,2012-10-06 02:55:00
10:15 PM,43.2,34.9,73,30.15,10.0,SW,5.8,-,N/A,,Clear,230,2012-10-06 03:15:00
10:35 PM,42.6,35.4,76,30.15,10.0,SW,4.6,-,N/A,,Clear,230,2012-10-06 03:35:00
10:55 PM,41.7,35.6,79,30.15,10.0,SW,4.6,-,N/A,,Clear,220,2012-10-06 03:55:00
11:15 PM,41.0,35.6,81,30.16,10.0,SW,3.5,-,N/A,,Clear,220,2012-10-06 04:15:00
11:35 PM,42.1,34.7,75,30.15,10.0,Calm,Calm,-,N/A,,Clear,0,2012-10-06 04:35:00
11:55 PM,41.2,34.3,77,30.15,10.0,WSW,3.5,-,N/A,,Clear,250,2012-10-06 04:55:00